Flag for India Weather past 2 weeks in Kapurthala, Punjab, India

Now
97 °F

Scattered clouds.


Feels Like: 110 °F
Forecast: 83 / 102 °F
Wind: 9 mph from Southeast

Location: Lahore Airport

Current Time: Jul 26, 2014 at 5:48:51 PM

Latest Report: Jul 26, 2014 at 4:55 PM


Visibility: 4 mi

Pressure: 29.59 "Hg

Humidity: 50%

Dew point: 75 °F

Location of KapurthalaLocation

Historic Weather in Kapurthala — Graph

°F

Kapurthala temperature yesterday

Maximum temperature yesterday: 93 °F (at 2:25 PM)
Minimum temperature yesterday: 79 °F (at 4:55 AM)
Average temperature yesterday: 87 °F

Past Weeks' High & Low Weather Summary

 TemperatureHumidityPressure
High109 °F (Jul 12, 2:55 PM)100% (Jul 18, 12:59 PM)29.68 "Hg (Jul 18, 12:59 PM)
Low77 °F (Jul 17, 1:29 PM)12% (Jul 21, 1:29 PM)29.33 "Hg (Jul 15, 6:25 PM)
Average90 °F64%29.48 "Hg
* Reported Jul 11 3:55 PM — Jul 26 4:25 PM, Kapurthala, Weather by CustomWeather, © 2014

Note: Actual official high and low records may vary slightly from our data, if they occured in-between our weather recording intervals... More about our weather records

Advertising

Kapurthala weather history for previous 24 hours

 ConditionsComfort  
Time TempWeatherWind HumidityBarometerVisibility
4:25 PM
Jul 26
97 °FScattered clouds.10 mph50%29.59 "Hg4 mi
3:55 PM97 °FScattered clouds.7 mph50%29.62 "Hg4 mi
3:25 PM97 °FScattered clouds.7 mph50%29.65 "Hg4 mi
3:00 PM97 °FScattered clouds.9 mph50%29.65 "Hg4 mi
2:30 PM97 °FScattered clouds.9 mph50%29.65 "Hg4 mi
2:00 PM95 °FScattered clouds.9 mph53%29.65 "Hg4 mi
1:30 PM95 °FScattered clouds.12 mph53%29.68 "Hg4 mi
12:59 PM93 °FScattered clouds.10 mph56%29.68 "Hg4 mi
12:29 PM93 °FScattered clouds.9 mph56%29.68 "Hg4 mi
11:59 AM93 °FScattered clouds.10 mph59%29.68 "Hg4 mi
11:29 AM91 °FScattered clouds.12 mph63%29.68 "Hg4 mi
10:59 AM91 °FScattered clouds.10 mph59%29.68 "Hg4 mi
9:55 AM90 °FScattered clouds.9 mph67%29.68 "Hg3 mi
8:25 AM84 °FBroken clouds.5 mph79%29.68 "Hg2 mi
7:55 AM82 °FBroken clouds.7 mph84%29.68 "Hg2 mi
7:25 AM82 °FBroken clouds.5 mph84%29.65 "Hg2 mi
6:55 AM82 °FBroken clouds.5 mph84%29.65 "Hg2 mi
6:25 AM82 °FBroken clouds.5 mph84%29.65 "Hg2 mi
5:30 AM82 °FPartly cloudy.5 mph79%29.62 "Hg2 mi
4:55 AM82 °FPassing clouds.5 mph79%29.62 "Hg2 mi
4:25 AM82 °FPassing clouds.3 mph79%29.62 "Hg2 mi
3:55 AM82 °FPassing clouds.5 mph79%29.62 "Hg2 mi
3:25 AM82 °FPassing clouds.5 mph79%29.62 "Hg2 mi
1:55 AM84 °FPartly cloudy.6 mph79%29.65 "Hg2 mi
1:25 AM84 °FPartly cloudy.6 mph79%29.65 "Hg2 mi
12:55 AM84 °FPartly cloudy.7 mph84%29.65 "Hg2 mi
12:25 AM84 °FPartly cloudy.7 mph84%29.65 "Hg2 mi
11:25 PM
Jul 25
84 °FPassing clouds.7 mph79%29.65 "Hg2 mi
10:55 PM84 °FPassing clouds.6 mph79%29.62 "Hg2 mi
10:25 PM84 °FPassing clouds.6 mph79%29.62 "Hg2 mi
9:55 PM86 °FPassing clouds.8 mph70%29.62 "Hg2 mi
9:30 PM86 °FPassing clouds.6 mph70%29.62 "Hg2 mi
9:00 PM86 °FPassing clouds.7 mph70%29.59 "Hg2 mi
8:30 PM88 °FPassing clouds.7 mph66%29.59 "Hg2 mi
8:00 PM88 °FWarm.N/A66%29.59 "Hg1 mi
7:30 PM88 °FScattered clouds.8 mph66%29.59 "Hg2 mi
7:00 PM90 °FScattered clouds.12 mph59%29.56 "Hg2 mi
6:30 PM90 °FScattered clouds.9 mph59%29.56 "Hg2 mi
6:00 PM90 °FScattered clouds.12 mph63%29.56 "Hg2 mi
5:30 PM91 °FScattered clouds.12 mph59%29.56 "Hg2 mi
5:00 PM91 °FScattered clouds.12 mph59%29.56 "Hg2 mi
Weather by CustomWeather, © 2014

See weather overviewHow to use our weather pages